651  
ASUS43 KIND 150010  
RWRIN  
 
WEATHER ROUNDUP FOR INDIANA  
NATIONAL WEATHER SERVICE INDIANAPOLIS IN  
800 PM EDT FRI JUN 14 2024  
 
NOTE: "FAIR" INDICATES FEW OR NO CLOUDS BELOW 12,000 FEET WITH NO  
SIGNIFICANT WEATHER AND/OR S TO VISIBILITY
.  
 
* - STATION DOES NOT REPORT WEATHER SUCH AS PRECIPITATION OR FOG.
 
 
+ - STATION NOT QUALITY CONTROLLED BY THE NATIONAL WEATHER SERVICE.  
USE DATA WITH CAUTION...ESPECIALLY DEWPOINT AND RELATIVE  
HUMIDITY OBSERVATIONS.  
 
INZ001>003-010>013-019-020-150100-  
NORTHWEST INDIANA  
 
CITY SKY/WX TMP DP RH WIND PRES REMARKS
 
GARY /AIRPORT/ SUNNY 66 66 100 N12G23 30.04R  
KNOX *+ FAIR N/A N/A N/A N13 29.99R  
LA PORTE + FAIR 73 59 60 N12 30.02R  
6HR MIN TEMP: 73; 6HR MAX TEMP: 83;  
 
MICHIGAN CITY+ FAIR 68 55 64 N7 30.04S  
MONTICELLO + FAIR 82 50 33 CALM 29.98S  
6HR MIN TEMP: 82; 6HR MAX TEMP: 85;  
 
RENSSELAER + FAIR 81 54 39 N6 30.00R  
VALPARAISO FAIR 71 57 61 N9 30.03R  
6HR MIN TEMP: 71; 6HR MAX TEMP: 85;  
 

 
 
LMZ046-743>745-150100-  
SOUTHERN LAKE MICHIGAN  
 
STATION/POSITION TIME TEMP WIND PRES WAVE
 
AIR SEA DIR/SP/G HT  
(UTC) (F) (DEG/KT/KT) (MB) (FT)  
BURNS HARBOR 2340 66 20/ 5/ 6 1017.6R  
MICHIGAN CITY 0000 66 90/ 13/ 16 1016.0  
5NW MICH CITY 2340 66 30/ 10/ 16 1016.9R 1  
 

 
 
INZ004-005-014>016-021>024-150100-  
NORTH CENTRAL INDIANA  
 
CITY SKY/WX TMP DP RH WIND PRES REMARKS
 
ELKHART FAIR 78 55 44 N7 30.00S  
GOSHEN PTSUNNY 80 54 40 N9 29.99R  
6HR MIN TEMP: 79; 6HR MAX TEMP: 85;  
 
LOGANSPORT + FAIR 81 48 32 N3 29.99S  
PERU/GRISSOM FAIR 82 46 27 N8 29.96R  
6HR MIN TEMP: 82; 6HR MAX TEMP: 86;  
 
PLYMOUTH *+ SUNNY 81 46 30 N5 29.99R  
ROCHESTER + FAIR 82 41 23 NE8 29.98S  
SOUTH BEND FAIR 77 58 51 N12 30.01R  
6HR MIN TEMP: 77; 6HR MAX TEMP: 85;  
 
WARSAW + FAIR 80 55 41 NE7 29.99S  
 

 
 
INZ006>009-017-018-025>027-150100-  
NORTHEAST INDIANA  
 
CITY SKY/WX TMP DP RH WIND PRES REMARKS
 
AUBURN + FAIR 81 52 36 MISG 30.00R  
FORT WAYNE FAIR 80 51 36 N10 29.98R  
6HR MIN TEMP: 80; 6HR MAX TEMP: 87;  
 
HUNTINGTON + FAIR 82 51 33 N5 29.97S  
6HR MIN TEMP: 82; 6HR MAX TEMP: 87;  
 
KENDALLVILLE + PTSUNNY 77 55 45 NE6 30.01R  
 

 
 
INZ028-029-035-036-043>045-051>053-150100-  
WEST CENTRAL INDIANA  
 
CITY SKY/WX TMP DP RH WIND PRES REMARKS
 
CRAWFORDSVL + FAIR 79 46 30 NW3 29.99S  
6HR MIN TEMP: 79; 6HR MAX TEMP: 83;  
 
GREENCASTLE + FAIR 82 51 33 N9 29.99R  
LAFAYETTE FAIR 83 47 28 NE3 29.97S  
6HR MIN TEMP: 83; 6HR MAX TEMP: 87;  
 
TERRE HAUTE FAIR 85 50 29 N8 29.98R  
6HR MIN TEMP: 85; 6HR MAX TEMP: 90;  
 

 
 
INZ030>032-037>040-046>048-054>057-064-065-150100-  
CENTRAL INDIANA  
 
CITY SKY/WX TMP DP RH WIND PRES REMARKS
 
ANDERSON + FAIR 83 47 28 NW6 29.97S  
6HR MIN TEMP: 79; 6HR MAX TEMP: 85;  
 
COLUMBUS SUNNY 82 55 39 N8 29.96R  
FISHERS *+ FAIR 83 55 38 N8 29.98R  
INDIANAPOLIS FAIR 83 52 34 N12 29.97R  
6HR MIN TEMP: 83; 6HR MAX TEMP: 87;  
 
-EAGLE CREEK FAIR 84 52 33 N9 29.97R  
6HR MIN TEMP: 84; 6HR MAX TEMP: 87;  
 
KOKOMO + FAIR 82 53 36 N9 29.99R  
6HR MIN TEMP: 82; 6HR MAX TEMP: 87; 6HR PCP: 0.01;  
 
MARION + FAIR 82 50 33 N7 29.98S  
SHELBYVILLE FAIR 85 57 38 N8 29.96R  
6HR MIN TEMP: 85; 6HR MAX TEMP: 90;  
 

 
 
INZ033-034-041-042-049-050-058-059-150100-  
EAST CENTRAL INDIANA  
 
CITY SKY/WX TMP DP RH WIND PRES REMARKS
 
MUNCIE FAIR 84 50 30 N12 29.96R  
6HR MIN TEMP: 82; 6HR MAX TEMP: 87;  
 
PORTLAND + FAIR 82 48 30 N6 29.97R  
RICHMOND + FAIR 81 57 44 NW8 29.97R  
 

 
 
INZ060-061-067>069-081>083-085>088-150100-  
SOUTHWEST INDIANA  
 
CITY SKY/WX TMP DP RH WIND PRES REMARKS
 
EVANSVILLE FAIR 90 63 40 N5 29.93R HX 91  
6HR MIN TEMP: 88; 6HR MAX TEMP: 94;  
 
HUNTINGBURG + FAIR 86 65 49 N6 29.94R  
6HR MIN TEMP: 86; 6HR MAX TEMP: 91;  
 
WASHINGTON + FAIR 86 53 31 N10 29.95R  
6HR MIN TEMP: 86; 6HR MAX TEMP: 92;  
 

 
 
INZ062-063-066-070>080-084-089>092-150100-  
SOUTH CENTRAL AND SOUTHEAST INDIANA  
 
CITY SKY/WX TMP DP RH WIND PRES REMARKS
 
BATESVILLE + SUNNY 82 63 51 CALM 29.96R  
BLOOMINGTON FAIR 84 58 40 N10 29.97R  
6HR MIN TEMP: 84; 6HR MAX TEMP: 90;  
 
FRENCH LICK *+ FAIR 82 59 44 N5 29.95R  
JEFFERSONVL + FAIR 88 66 48 N9 29.91R HX 90  
MADISON *+ FAIR 84 64 51 CALM 29.96R  
 

 
 
 
 
CLICK HERE TO GO TO PREVIOUS BULLETINS.

The Nexlab IN Page Main Text Page